Idabel, OK

5:25 PM CDT on August 31, 2016 (GMT -0500)
Idabel

Weather History for K4O4 - February, 2013

Change the Weather History Date:

Monday, February 4, 2013

  Actual Average (KDEQ) Record (KDEQ)
Temperature  
Mean Temperature 48 °F 43 °F  
Max Temperature 53 °F 56 °F 77 °F (2008)
Min Temperature 44 °F 30 °F 4 °F (1996)
Degree Days  
Heating Degree Days 16 22  
Month to date heating degree days 91  
Since 1 July heating degree days 2027  
Cooling Degree Days 0 0  
Month to date cooling degree days 0  
Year to date cooling degree days 1  
Moisture  
Dew Point 42 °F    
Average Humidity 78    
Maximum Humidity 93    
Minimum Humidity 35    
Precipitation  
Precipitation 0.13 in 0.16 in 2.44 in (1986)
Month to date precipitation 0.64  
Year to date precipitation 3.96  
Snow  
Snow 0.00 in - - ()
Month to date snowfall  
Since 1 July snowfall  
Snow Depth -    
Sea Level Pressure  
Sea Level Pressure 29.94 in    
Wind  
Wind Speed 7 mph (East)    
Max Wind Speed 10 mph    
Max Gust Speed -    
Visibility 8 miles    
Events      
T = Trace of Precipitation, MM = Missing Value Source: NWS Daily Summary

Daily Weather History Graph

Daily Weather History Graph

Search for Another Location

Airport or City:

Trip Planner

Search our weather history database for the weather conditions in past years. The results will help you decide how hot, cold, wet, or windy it might be!

Date:

Astronomy

Feb. 04, 2013 Rise Set
Actual Time 7:13 AM CST 5:53 PM CST
Civil Twilight 6:47 AM CST 6:19 PM CST
Nautical Twilight 6:18 AM CST 6:49 PM CST
Astronomical Twilight 5:48 AM CST 7:18 PM CST
Moon 1:47 AM CST (2/4) 12:21 PM CST (2/4)
Length of Visible Light 11h 31m
Length of Day
10h 39m
Last Quarter, 37% of the Moon is Illuminated
Feb 4
Last Quarter
Feb 10
New
Feb 17
First Quarter
Feb 25
Full
Mar 4
Last Quarter

Hourly Weather History & Observations

Time (CST) Temp. Windchill Dew Point Humidity Pressure Visibility Wind Dir Wind Speed Gust Speed Precip Events Conditions
12:15 AM 53.6 °F - 26.6 °F 35% 30.03 in 10.0 mi SE 9.2 mph - N/A   Clear
12:35 AM 53.6 °F - 28.4 °F 38% 30.02 in 10.0 mi SSE 10.4 mph - N/A   Clear
12:55 AM 51.8 °F - 28.4 °F 41% 30.02 in 10.0 mi SSE 9.2 mph - N/A   Clear
1:15 AM 51.8 °F - 30.2 °F 44% 30.01 in 10.0 mi SSE 10.4 mph - N/A   Clear
1:55 AM 51.8 °F - 30.2 °F 44% 29.99 in 10.0 mi SSE 9.2 mph - N/A   Clear
2:15 AM 51.8 °F - 30.2 °F 44% 29.99 in 10.0 mi SSE 9.2 mph - N/A   Clear
2:35 AM 50.0 °F - 30.2 °F 47% 30.00 in 10.0 mi SE 5.8 mph - N/A   Clear
2:55 AM 50.0 °F - 32.0 °F 50% 30.00 in 10.0 mi ESE 5.8 mph - N/A   Clear
3:15 AM 48.2 °F - 32.0 °F 54% 30.00 in 10.0 mi ENE 3.5 mph - N/A   Clear
5:15 AM 46.4 °F 42.9 °F 32.0 °F 57% 29.97 in 7.0 mi ENE 6.9 mph - N/A   Mostly Cloudy
5:35 AM 44.6 °F 42.2 °F 33.8 °F 66% 29.97 in 10.0 mi SE 4.6 mph - N/A   Scattered Clouds
5:55 AM 44.6 °F 40.7 °F 35.6 °F 71% 29.97 in 10.0 mi SSE 6.9 mph - N/A   Scattered Clouds
6:15 AM 46.4 °F 43.5 °F 35.6 °F 66% 29.97 in 10.0 mi SSE 5.8 mph - N/A   Mostly Cloudy
6:35 AM 46.4 °F 42.9 °F 37.4 °F 71% 29.97 in 10.0 mi East 6.9 mph - N/A   Mostly Cloudy
6:55 AM 46.4 °F 41.9 °F 37.4 °F 71% 29.97 in 10.0 mi ESE 9.2 mph - N/A   Mostly Cloudy
7:15 AM 46.4 °F 41.5 °F 37.4 °F 71% 29.96 in 10.0 mi SE 10.4 mph - 0.01 in   Mostly Cloudy
7:55 AM 44.6 °F 40.7 °F 39.2 °F 81% 29.98 in 10.0 mi ESE 6.9 mph - 0.01 in   Scattered Clouds
8:15 AM 44.6 °F 40.7 °F 39.2 °F 81% 29.97 in 10.0 mi ESE 6.9 mph - N/A   Scattered Clouds
8:35 AM 44.6 °F - 41.0 °F 87% 29.99 in 10.0 mi Calm Calm - N/A   Scattered Clouds
8:55 AM 44.6 °F 41.4 °F 41.0 °F 87% 29.98 in 10.0 mi East 5.8 mph - N/A   Scattered Clouds
9:15 AM 44.6 °F 39.7 °F 41.0 °F 87% 29.97 in 10.0 mi ESE 9.2 mph - N/A   Scattered Clouds
9:35 AM 46.4 °F 44.3 °F 41.0 °F 81% 29.97 in 10.0 mi East 4.6 mph - N/A   Mostly Cloudy
9:55 AM 46.4 °F 43.5 °F 42.8 °F 87% 29.97 in 10.0 mi East 5.8 mph - N/A   Mostly Cloudy
10:15 AM 46.4 °F 45.2 °F 42.8 °F 87% 29.97 in 10.0 mi East 3.5 mph - N/A   Mostly Cloudy
10:35 AM 48.2 °F - 42.8 °F 82% 29.97 in 10.0 mi East 3.5 mph - N/A   Scattered Clouds
10:55 AM 50.0 °F - 42.8 °F 76% 29.98 in 10.0 mi NNE 3.5 mph - N/A   Mostly Cloudy
11:15 AM 48.2 °F - 42.8 °F 82% 29.97 in 3.0 mi East 3.5 mph - 0.04 in   Overcast
11:35 AM 48.2 °F - 44.6 °F 87% 29.96 in 2.0 mi East 4.6 mph - 0.11 in   Overcast
11:55 AM 46.4 °F 42.9 °F 44.6 °F 93% 29.95 in 10.0 mi East 6.9 mph - 0.12 in   Mostly Cloudy
12:35 PM 50.0 °F - 46.4 °F 87% 29.92 in 10.0 mi East 6.9 mph - N/A   Mostly Cloudy
12:55 PM 50.0 °F - 46.4 °F 87% 29.92 in 10.0 mi East 5.8 mph - N/A   Mostly Cloudy
1:15 PM 50.0 °F - 46.4 °F 87% 29.91 in 10.0 mi ENE 5.8 mph - N/A   Overcast
1:35 PM 50.0 °F - 46.4 °F 87% 29.90 in 10.0 mi East 5.8 mph - N/A   Overcast
1:55 PM 51.8 °F - 48.2 °F 88% 29.89 in 10.0 mi East 4.6 mph - N/A   Mostly Cloudy
2:15 PM 51.8 °F - 46.4 °F 82% 29.89 in 10.0 mi ENE 6.9 mph - N/A   Mostly Cloudy
2:35 PM 51.8 °F - 46.4 °F 82% 29.89 in 10.0 mi ENE 6.9 mph - N/A   Mostly Cloudy
2:55 PM 51.8 °F - 46.4 °F 82% 29.88 in 10.0 mi ENE 6.9 mph - N/A   Mostly Cloudy
3:15 PM 51.8 °F - 48.2 °F 88% 29.87 in 10.0 mi East 8.1 mph - N/A   Mostly Cloudy
3:35 PM 51.8 °F - 48.2 °F 88% 29.86 in 10.0 mi East 6.9 mph - N/A   Mostly Cloudy
3:55 PM 51.8 °F - 48.2 °F 88% 29.86 in 10.0 mi East 5.8 mph - N/A   Mostly Cloudy
4:15 PM 51.8 °F - 48.2 °F 88% 29.87 in 10.0 mi ENE 5.8 mph - N/A   Mostly Cloudy
4:35 PM 51.8 °F - 48.2 °F 88% 29.87 in 10.0 mi ENE 6.9 mph - N/A   Mostly Cloudy
4:55 PM 51.8 °F - 46.4 °F 82% 29.87 in 10.0 mi NE 6.9 mph - N/A   Overcast
5:15 PM 51.8 °F - 46.4 °F 82% 29.88 in 10.0 mi NE 6.9 mph - N/A   Overcast
5:35 PM 51.8 °F - 46.4 °F 82% 29.89 in 10.0 mi NE 8.1 mph - N/A   Overcast
5:55 PM 50.0 °F - 46.4 °F 87% 29.89 in 7.0 mi NE 8.1 mph - N/A   Overcast
6:15 PM 50.0 °F - 46.4 °F 87% 29.89 in 7.0 mi ENE 6.9 mph - N/A   Overcast
6:35 PM 50.0 °F - 46.4 °F 87% 29.90 in 7.0 mi ENE 6.9 mph - N/A   Overcast
6:55 PM 50.0 °F - 46.4 °F 87% 29.91 in 7.0 mi ENE 6.9 mph - N/A   Overcast
7:15 PM 50.0 °F - 46.4 °F 87% 29.91 in 7.0 mi ENE 8.1 mph - N/A   Overcast
7:35 PM 50.0 °F - 46.4 °F 87% 29.91 in 7.0 mi East 6.9 mph - N/A   Overcast
7:55 PM 50.0 °F - 46.4 °F 87% 29.91 in 7.0 mi East 6.9 mph - N/A   Overcast
8:15 PM 48.2 °F - 44.6 °F 87% 29.92 in 5.0 mi ENE 4.6 mph - N/A   Scattered Clouds
8:35 PM 46.4 °F 44.3 °F 44.6 °F 93% 29.93 in 4.0 mi NE 4.6 mph - N/A   Scattered Clouds
9:15 PM 46.4 °F 42.9 °F 44.6 °F 93% 29.93 in 5.0 mi ENE 6.9 mph - N/A   Overcast
9:55 PM 48.2 °F - 44.6 °F 87% 29.94 in 5.0 mi ENE 5.8 mph - N/A   Overcast
10:15 PM 48.2 °F - 46.4 °F 93% 29.94 in 5.0 mi NE 5.8 mph - N/A   Overcast
10:35 PM 48.2 °F - 46.4 °F 93% 29.94 in 2.5 mi ENE 4.6 mph - N/A   Overcast
10:55 PM 48.2 °F - 46.4 °F 93% 29.95 in 1.8 mi NE 4.6 mph - N/A   Overcast
11:15 PM 48.2 °F - 46.4 °F 93% 29.95 in 1.0 mi ENE 5.8 mph - N/A   Overcast
11:35 PM 48.2 °F - 46.4 °F 93% 29.95 in 0.5 mi ENE 6.9 mph - N/A   Overcast
11:55 PM 48.2 °F - 46.4 °F 93% 29.95 in 0.5 mi East 5.8 mph - N/A   Overcast